Regional Weather Roundup
Issued by NWS

Home | Current Version | Previous Version | Graphics & Text | Print | Product List | Glossary On
Versions: 1 2 3 4 5 6 7 8 9 10 11 12 13 14 15 16 17 18 19 20 21 22 23 24 25 26 27 28 29 30 31 32 33 34 35 36 37 38 39 40
000
ASUS45 KBOU 280807
RWRCO

WEATHER ROUNDUP FOR COLORADO
NATIONAL WEATHER SERVICE DENVER/BOULDER CO
100 AM MST SUN DEC 28 2014

NOTE: "FAIR" INDICATES FEW OR NO CLOUDS BELOW 12000 FEET WITH NO
SIGNIFICANT WEATHER AND/OR OBSTRUCTIONS TO VISIBILITY.

COZ001>005-013-030-031-280900-
...NORTHWEST COLORADO...

CITY           SKY/WX    TMP DP  RH WIND       PRES   REMARKS
CRAIG          CLOUDY    10   4  76 SW5       30.15F WCI   2
HAYDEN         CLOUDY     7   0  72 E7        30.12F WCI  -5
MEEKER         CLOUDY    13   5  70 CALM      30.15F
MOUNT WERNER   NOT AVBL
STEAMBOAT SPGS CLOUDY     0  -3  85 CALM      30.12F
WALDEN         CLOUDY    10   0  61 S18G26    29.98F WCI  -8
$$

COZ006>008-011-280900-
...WEST CENTRAL VALLEYS...

CITY           SKY/WX    TMP DP  RH WIND       PRES   REMARKS
GRAND JUNCTION PTCLDY    18  12  77 E7        30.25F WCI   9
MONTROSE       PTCLDY    13   6  74 S5        30.25F WCI   5
EAGLE          CLOUDY     3   1  92 E5        30.20F WCI  -6
RIFLE          MOCLDY    12   6  77 CALM      30.25F
DELTA          PTCLDY    17   8  68 E7        30.28S WCI   8
NUCLA          PTCLDY    12   5  73 E9        30.26F WCI   0
$$

COZ017>023-064>068-280900-
...SOUTHWEST COLORADO...

CITY           SKY/WX    TMP DP  RH WIND       PRES   REMARKS
DURANGO        PTCLDY     3   0  87 CALM      30.21F
CORTEZ         CLEAR      7   3  84 E5        30.24F WCI  -2
PAGOSA SPRINGS MOCLDY     8   6  92 CALM      30.17F
TELLURIDE      PTCLDY     7  -1  69 E7        30.12F WCI  -5
WOLF CREEK PAS   N/A      1   0  92 MISG      30.02S
$$

COZ009-010-012-014-032>034-037-058>063-280900-
...CENTRAL COLORADO...

CITY           SKY/WX    TMP DP  RH WIND       PRES   REMARKS
ASPEN          MOCLDY     0  -5  79 SE6       30.11F WCI -12
BUENA VISTA    PTCLDY    -4 -10  77 CALM      30.03F
COPPER MTN     MOCLDY    12 -18  24 SW15      29.94F WCI  -4
BERTHOUD PASS  NOT AVBL
COTTONWOOD PAS PTCLDY    19 -22  15 N10G22    29.96F WCI   8
GUNNISON       PTCLDY   -15 N/A N/A E5        30.22F WCI -27
KREMMLING      CLOUDY    -4  -9  77 CALM      30.12F
LEADVILLE      MOCLDY     5 -15  39 NE12      29.97F WCI -11
SALIDA         PTCLDY    11   0  59 N7G16     30.11F WCI   1
SUNLIGHT       PTCLDY   N/A N/A N/A SW3       30.02F
WILKERSON PASS PTCLDY     7 -13  40 W9        29.91F WCI  -7
$$

COZ069>075-280900-
...SAN LUIS VALLEY/SANGRE DE CRISTO MOUNTAINS...

CITY           SKY/WX    TMP DP  RH WIND       PRES   REMARKS
ALAMOSA        PTCLDY    -7 -11  83 SW5       30.16F WCI -18
LA VETA PASS   NOT AVBL
SAGUACHE       MOCLDY     3  -6  66 N15       30.15F WCI -15
$$

COZ035-036-038>040-280900-
...NORTHERN COLORADO FRONT RANGE...

CITY           SKY/WX    TMP DP  RH WIND       PRES   REMARKS
DENVER INTL AP MOCLDY     9   1  70 S7        29.98F WCI  -2
DMNS CITY PARK   N/A     14   9  81 S5        29.98F WCI   6
AURORA         PTCLDY    15   3  59 S9        29.97F WCI   3
FRONT RANGE AP MOCLDY    16   7  67 S13       29.98F WCI   2
ERIE MUNI ARPT   N/A    N/A N/A N/A S3        30.00F
BOULDER MUN AP MOCLDY    10  10 100 CALM      29.98F
CENTENNIAL     MOCLDY    12   1  61 S9        29.96F WCI   0
BROOMFIELD     MOCLDY    16  12  86 S5        29.96F WCI   9
FORT COLLINS   PTCLDY     7   5  92 CALM      30.01F
LONGMONT       PTCLDY     3  -1  81 N3        30.02F
$$

COZ041-046-047-076>085-087-088-280900-
...PIKES PEAK/PALMER DIVIDE AND SOUTHERN FOOTHILLS...

CITY           SKY/WX    TMP DP  RH WIND       PRES   REMARKS
COLO. SPRINGS  PTCLDY     9   3  77 NE10      29.99F WCI  -5
A. F. ACADEMY  CLEAR      4  -2  75 N9        29.97F WCI -10
ELLICOTT       NOT AVBL
FALCON         PTCLDY    11   1  64 W5        29.97F WCI   3
FORT CARSON    CLEAR     12   7  79 NW10      29.99F WCI  -2
LIMON          PTCLDY     0  -3  87 N8        30.02F WCI -14
MONUMENT HILL  PTCLDY    12  -4  48 S8        29.94F WCI   1
TRINIDAD       PTCLDY    10   3  73 NW9       30.03F WCI  -3
$$

COZ042>045-048>051-090-091-280900-
...NORTHEAST COLORADO...

CITY           SKY/WX    TMP DP  RH WIND       PRES   REMARKS
GREELEY ARPT   MOCLDY    -6 -15  65 CALM      30.01F
AKRON          MOCLDY    10   5  80 SW12      30.01F WCI  -5
BURLINGTON     MOCLDY    10   5  80 SW10      30.07F WCI  -4
WRAY           MOCLDY    11   7  83 W6        30.08S WCI   2
STERLING       MOCLDY    -2  -6  84 SW6       30.05F WCI -14
HOLYOKE        MOCLDY     9   3  78 W8        30.07F WCI  -4
FORT MORGAN    MOCLDY    -2  -6  84 W10       30.04S WCI -19
$$

COZ086-089-092>099-280900-
...SOUTHEAST COLORADO...

CITY           SKY/WX    TMP DP  RH WIND       PRES   REMARKS
PUEBLO         PTCLDY     7   4  87 W3        30.05F
LA JUNTA       PTCLDY    10   6  84 W5        30.08F WCI   2
LAMAR          PTCLDY     6   3  87 CALM      30.09F
SPRINGFIELD      N/A     15  11  83 CALM      30.06F
$$



USA.gov is the U.S. government's official web portal to all federal, state and local government web resources and services.